Home > Weather > Changsha > Past weeks

Flag for China Past Weather in Changsha, Hunan, China — Yesterday and Last 2 Weeks

Now
77 °F

Partly sunny.


Feels Like: 79 °F
Forecast: 71 / 83 °F
Wind: 17 mph from North

Location: Changsha

Current Time: Aug 26, 2016 at 3:01:57 PM

Latest Report: Aug 26, 2016 at 2:00 PM


Visibility: N/A

Pressure: 29.80 "Hg

Humidity: 79%

Dew Point: 70 °F

Location of ChangshaLocation

Past Weather in Changsha — Graph

°F

Changsha Temperature Yesterday

Maximum temperature yesterday: 100 °F (at 3:00 PM)
Minimum temperature yesterday: 84 °F (at 2:00 AM)
Average temperature yesterday: 91 °F

High & Low Weather Summary for the Past Weeks

 TemperatureHumidityPressure
High100 °F (Aug 25, 3:00 PM)94% (Aug 14, 4:00 AM)29.80 "Hg (Aug 14, 4:00 AM)
Low77 °F (Aug 26, 2:00 PM)39% (Aug 18, 3:00 PM)29.45 "Hg (Aug 17, 3:00 PM)
Average88 °F70%29.60 "Hg
* Reported Aug 11 2:00 PM — Aug 26 2:00 PM, Changsha, Weather by CustomWeather, © 2016

Note: Actual official high and low records may vary slightly from our data, if they occured in-between our weather recording intervals... More about our weather records

Advertising

Changsha Weather History for the Previous 24 Hours

Scroll right to see more
 ConditionsComfort  
Time TempWeatherWind HumidityBarometerVisibility
2:00 PM
Fri, Aug 26
77 °FPartly sunny.17 mph79%29.80 "HgN/A
1:00 PM79 °FPartly sunny.17 mph74%29.80 "HgN/A
12:00 PM79 °FPartly sunny.17 mph74%29.80 "HgN/A
11:00 AM81 °FPartly sunny.17 mph74%29.80 "Hg6 mi
10:00 AM79 °FPartly sunny.17 mph79%29.77 "Hg5 mi
9:00 AM81 °FPartly sunny.15 mph79%29.77 "Hg4 mi
8:00 AM79 °FBroken clouds.17 mph84%29.77 "Hg4 mi
7:00 AM81 °FPartly sunny.15 mph79%29.74 "Hg4 mi
6:00 AM82 °FPassing clouds.10 mph79%29.71 "Hg6 mi
5:00 AM82 °FClear.15 mph84%29.68 "Hg6 mi
4:00 AM82 °FClear.17 mph79%29.65 "Hg6 mi
3:00 AM86 °FFog.10 mph79%29.62 "Hg3 mi
2:00 AM86 °FFog.8 mph79%29.65 "Hg3 mi
1:00 AM88 °FFog.8 mph70%29.65 "Hg3 mi
12:00 AM88 °FFog.1 mph75%29.65 "Hg3 mi
11:00 PM
Thu, Aug 25
90 °FHaze.6 mph67%29.65 "Hg3 mi
10:00 PM90 °FHaze.3 mph71%29.65 "Hg3 mi
9:00 PM91 °FClear.6 mph63%29.62 "Hg4 mi
8:00 PM91 °FClear.3 mph67%29.62 "Hg4 mi
7:00 PM93 °FClear.6 mph59%29.59 "Hg4 mi
6:00 PM95 °FClear.6 mph56%29.56 "Hg4 mi
5:00 PM97 °FClear.8 mph50%29.56 "Hg5 mi
4:00 PM99 °FClear.10 mph44%29.56 "Hg5 mi
3:00 PM100 °FClear.8 mph45%29.56 "Hg5 mi
Weather by CustomWeather, © 2016

See weather overviewHow to use our weather pages